Wind_Speed
6 8 14 16 18 20 18 17 16 15 13 13 11 10 8 7 6 7 9 8 8 7 10 14 14 15 12 14 15 15 13 11 10 10 13 14 12 13 14 13 12 10 9
9 10 16 16 19 20 18 18 16 15 14 14 12 10 8 6 6 8 10 9 8 10 13 14 15 12 9 13 15 13 11 10 10 12 12 14 14 14 14 12 12 11 11
9 12 19 18 18 19 19 18 16 15 14 14 13 11 9 7 7 10 13 12 8 10 13 10 9 9 11 13 13 12 12 13 13 13 16 10 13 13 13 14 13 12 11
3 12 17 18 17 18 19 18 17 15 14 14 12 11 10 8 8 11 14 14 9 10 15 15 13 10 12 13 13 13 13 14 14 13 10 10 9 11 11 10 9 8 6
2 10 16 20 19 18 18 17 17 16 16 14 12 11 11 10 9 14 13 15 12 9 11 10 12 12 12 13 12 12 12 12 12 10 9 9 7 6 7 6 6 6 4
3 9 14 22 21 19 18 17 17 17 16 14 13 11 12 11 11 14 13 15 12 7 8 11 12 13 12 11 10 10 10 10 10 7 6 8 6 7 7 6 6 6 5
5 9 12 20 20 21 21 18 17 17 16 15 13 12 12 12 14 15 14 15 11 7 9 11 12 11 10 10 9 8 8 8 8 7 7 7 6 6 6 5 5 5 5
2 9 13 18 19 20 21 20 18 17 17 16 14 12 13 14 15 17 15 15 12 9 9 12 12 11 10 9 8 8 8 7 7 7 7 6 7 6 5 4 3 4 5
5 5 11 14 17 18 19 20 19 18 18 17 16 14 14 14 16 17 16 17 14 10 11 12 12 11 9 9 8 7 7 7 7 6 6 5 5 5 3 2 2 3 3
2 8 11 14 13 15 18 21 20 20 19 19 18 16 15 15 16 18 16 17 15 12 12 13 13 12 10 9 8 7 7 7 5 6 5 5 5 4 3 1 1 1 2
6 7 12 15 15 16 16 18 21 21 20 20 19 18 17 16 17 17 19 19 17 14 13 14 15 13 11 10 10 8 7 6 6 5 5 5 5 5 3 3 2 2 1
13 10 11 16 19 18 18 18 20 20 23 21 20 18 19 16 16 17 19 19 17 15 15 16 17 15 14 11 11 10 8 7 7 6 6 6 6 6 5 4 4 3 3
24 18 14 15 19 22 21 21 18 19 19 19 19 19 17 17 16 18 20 21 20 17 18 19 19 18 16 12 11 10 10 10 8 8 9 7 7 7 7 6 6 6 5
33 29 22 19 19 21 25 25 22 21 20 21 23 21 20 19 18 17 19 21 20 17 15 18 20 17 18 16 13 12 12 11 10 10 9 9 8 8 8 8 7 7 7
34 35 30 26 23 22 23 26 28 26 25 24 26 25 22 21 21 20 19 20 21 17 17 17 19 19 21 18 18 17 14 13 11 11 11 11 10 10 9 8 6 5 6
28 35 35 33 29 27 24 26 27 29 24 24 27 28 27 23 22 22 22 22 21 19 18 17 18 19 18 20 20 18 16 15 15 14 13 13 13 12 11 11 9 8 8
27 27 34 36 35 32 28 27 29 29 30 29 29 28 28 28 24 24 25 22 21 20 19 20 22 23 22 18 21 18 19 17 15 15 14 15 16 16 14 12 12 11 10
30 29 27 32 37 36 32 28 29 32 33 32 30 27 26 25 27 28 25 22 21 21 21 22 19 19 18 19 18 16 19 18 17 16 16 16 17 18 18 18 17 16 15
29 30 28 26 31 35 33 30 27 32 34 31 30 28 26 25 24 29 30 26 25 26 25 24 25 23 24 27 27 22 18 20 18 18 19 18 19 21 22 21 20 19 19
29 31 33 30 29 31 26 29 32 30 36 34 30 29 28 26 27 29 30 30 30 30 29 30 28 28 27 25 25 28 25 22 21 22 24 21 21 25 24 23 23 22 21
29 30 35 35 32 31 30 28 37 34 35 37 35 31 31 29 26 26 29 28 29 31 32 31 29 29 31 31 30 32 33 31 29 29 29 28 27 27 25 25 25 26 24
26 28 29 33 33 31 28 28 34 37 34 36 37 35 33 30 29 26 27 27 29 28 30 31 33 32 30 35 36 29 22 28 32 37 33 29 30 31 29 28 28 26 25
22 25 27 28 31 31 27 25 25 30 28 34 36 36 35 32 32 31 32 31 28 28 29 30 31 31 32 33 40 28 17 23 23 25 27 29 30 33 35 29 27 26 23
20 21 25 28 30 30 27 25 24 27 26 35 37 37 36 35 36 34 32 31 30 29 31 33 32 31 33 32 32 39 41 23 18 19 24 26 27 30 31 24 22 23 24
19 21 23 25 29 31 26 28 24 26 25 27 30 31 30 33 33 33 31 30 33 36 37 38 38 40 39 39 39 30 31 37 35 28 24 20 23 15 19 21 21 23 26
16 18 23 24 24 28 24 26 25 28 24 25 22 27 26 30 32 34 35 35 35 34 36 38 35 38 38 42 43 39 34 36 31 32 32 33 32 33 31 34 29 28 24
Wind_Direction
327 214 196 189 184 180 178 178 181 181 181 179 175 169 164 156 151 149 142 130 122 105 121 128 121 126 139 131 132 132 138 127 118 117 120 113 104 110 119 123 97 102 94
308 214 199 194 190 188 183 184 186 184 186 183 182 181 182 174 164 159 148 152 139 134 126 129 141 158 161 142 141 140 143 148 133 126 118 114 107 106 110 115 110 102 98
322 193 198 199 192 191 188 189 188 190 190 190 190 192 199 193 181 170 155 164 165 140 127 135 137 142 139 141 144 135 132 140 135 124 105 106 107 107 109 106 101 97 96
347 179 189 196 197 192 194 194 192 191 195 197 201 204 207 201 189 175 163 173 173 149 155 158 164 153 135 135 136 132 128 131 132 127 107 99 108 125 122 121 123 125 118
159 184 189 202 199 199 195 201 197 197 198 206 214 214 207 202 193 174 176 179 176 156 157 166 155 149 138 137 138 138 136 135 132 117 125 128 121 130 129 119 107 103 96
211 200 205 201 203 205 206 207 204 204 209 214 213 212 208 201 191 181 190 184 182 173 152 158 153 148 143 142 143 146 146 144 141 137 123 134 127 133 123 112 101 94 82
186 201 208 204 207 210 213 216 212 210 211 212 211 209 207 202 193 192 197 192 187 187 170 168 162 156 156 156 151 151 153 153 146 147 142 138 144 133 124 113 100 88 78
223 190 203 208 210 214 216 218 216 217 214 215 216 214 213 206 197 196 202 198 195 196 183 180 172 166 163 163 163 161 159 157 150 152 150 144 150 141 130 117 99 78 64
232 208 201 210 217 218 217 221 220 221 218 219 221 221 216 209 206 208 206 203 204 201 191 189 184 178 176 171 168 166 166 164 155 168 158 152 164 154 147 130 93 71 58
274 218 218 206 223 219 223 220 223 223 224 224 224 222 218 216 212 214 214 211 212 205 200 197 195 191 188 185 184 181 176 174 174 178 177 189 188 180 177 168 131 80 56
279 249 224 224 217 231 222 224 223 223 224 226 227 224 222 218 218 219 217 218 215 214 213 208 205 202 198 197 198 198 194 193 192 195 199 206 212 211 211 220 233 257 317
255 246 244 235 230 223 227 227 226 223 222 223 225 224 220 219 219 216 217 212 218 222 222 216 212 210 206 208 213 209 207 219 216 215 219 225 231 232 231 240 251 267 283
259 254 246 243 241 234 229 228 222 223 224 220 220 221 217 219 222 219 220 212 217 219 222 217 217 216 214 208 211 217 221 224 230 232 238 239 240 240 240 247 257 262 274
264 256 247 246 244 243 232 230 226 223 224 225 224 221 221 219 221 217 219 220 215 215 212 215 216 212 215 220 222 224 230 230 235 243 247 247 243 244 245 243 249 260 270
263 255 248 243 244 243 242 232 232 228 226 230 235 234 222 223 220 216 217 219 220 211 210 212 214 218 225 226 228 231 235 238 244 248 249 251 249 247 246 242 241 262 271
268 258 251 245 241 243 240 235 228 229 226 225 230 233 233 221 222 219 219 218 216 214 213 215 214 215 220 227 235 239 240 244 245 248 252 253 249 246 243 240 245 259 258
273 268 254 247 239 239 240 234 229 225 228 230 231 230 234 233 222 221 217 216 215 215 218 225 218 225 229 232 239 243 246 250 254 253 256 256 254 246 244 246 244 250 266
263 263 260 249 241 237 236 238 232 227 228 229 232 230 230 233 235 231 225 220 220 218 223 226 221 222 226 231 236 242 247 250 255 259 260 259 261 250 247 250 254 255 259
259 255 253 253 247 239 234 234 237 229 226 228 230 229 230 230 232 232 236 230 229 230 236 233 233 235 237 239 244 243 250 250 252 257 259 260 259 257 254 258 254 258 260
253 250 246 246 249 243 231 232 233 233 226 225 227 229 228 230 229 232 234 231 235 237 236 235 235 237 237 238 240 250 249 251 254 259 262 260 260 263 259 258 257 257 257
248 245 243 242 245 241 230 227 230 232 231 223 223 224 227 226 216 229 235 234 234 236 239 243 242 237 242 239 245 247 253 254 255 259 263 265 265 265 259 257 256 257 260
256 250 245 243 244 241 229 226 229 231 233 226 220 221 222 223 222 212 232 235 236 238 237 241 239 243 243 239 234 246 250 248 253 254 258 264 271 266 260 256 256 256 261
262 251 250 250 248 242 231 224 228 228 233 225 223 219 219 219 220 221 226 231 235 236 240 240 239 237 238 240 242 229 238 245 243 246 251 254 277 266 255 254 253 256 267
267 259 251 248 246 243 230 222 227 219 221 227 226 222 221 222 223 227 233 235 242 242 242 241 243 245 245 238 240 233 235 244 244 242 241 243 269 259 251 246 253 259 275
270 255 253 249 245 239 230 223 224 228 226 231 226 223 220 226 229 235 237 239 244 248 253 248 249 248 249 246 236 241 239 236 242 244 244 237 260 266 241 236 251 268 267
271 255 245 247 244 233 226 223 222 235 224 223 221 223 224 230 236 239 243 247 249 250 251 253 251 254 255 248 245 237 237 237 234 233 239 243 249 249 259 271 259 267 274
Height
1519 1519 1519 1521 1523 1525 1527 1529 1530 1532 1534 1535 1536 1536 1537 1537 1538 1538 1538 1539 1539 1539 1539 1540 1541 1541 1541 1542 1542 1543 1543 1544 1544 1544 1544 1544 1544 1544 1545 1545 1545 1545 1544
1518 1518 1519 1521 1523 1526 1527 1529 1531 1533 1534 1535 1536 1537 1538 1538 1539 1539 1540 1540 1541 1541 1542 1542 1544 1543 1543 1543 1544 1544 1545 1545 1546 1547 1547 1546 1546 1546 1546 1547 1546 1546 1546
1515 1516 1519 1521 1523 1526 1528 1529 1531 1533 1534 1536 1537 1538 1539 1539 1540 1540 1541 1541 1542 1543 1543 1544 1545 1545 1544 1545 1546 1546 1546 1547 1548 1549 1549 1551 1549 1549 1549 1549 1549 1548 1548
1515 1517 1520 1521 1523 1526 1528 1530 1531 1533 1534 1536 1537 1538 1539 1540 1540 1541 1542 1542 1543 1544 1545 1545 1546 1546 1546 1547 1547 1548 1548 1549 1550 1551 1554 1553 1552 1551 1551 1550 1550 1550 1549
1517 1518 1520 1521 1523 1526 1528 1530 1531 1532 1534 1536 1537 1538 1539 1540 1541 1541 1543 1544 1544 1545 1545 1546 1547 1547 1548 1548 1549 1550 1550 1551 1552 1553 1553 1555 1555 1552 1552 1552 1551 1551 1551
1518 1518 1519 1521 1522 1525 1527 1529 1530 1532 1534 1535 1536 1537 1539 1540 1541 1542 1543 1544 1546 1546 1546 1547 1548 1549 1549 1550 1551 1551 1552 1552 1553 1554 1555 1554 1556 1554 1554 1553 1553 1552 1552
1515 1517 1519 1520 1521 1523 1526 1528 1529 1531 1532 1534 1535 1537 1538 1540 1541 1542 1544 1545 1546 1547 1548 1549 1549 1550 1550 1551 1552 1552 1553 1553 1554 1555 1555 1555 1555 1555 1555 1554 1554 1553 1552
1515 1515 1518 1519 1521 1524 1526 1527 1528 1531 1532 1533 1535 1536 1538 1540 1540 1542 1543 1545 1546 1547 1548 1550 1550 1551 1551 1552 1553 1553 1554 1554 1555 1556 1556 1556 1556 1556 1555 1555 1555 1554 1554
1515 1515 1516 1519 1520 1522 1524 1526 1528 1529 1531 1532 1534 1536 1537 1539 1540 1541 1543 1544 1546 1547 1548 1550 1551 1552 1553 1553 1554 1555 1555 1555 1556 1556 1557 1557 1556 1556 1556 1556 1556 1555 1554
1514 1514 1515 1516 1519 1522 1523 1523 1526 1528 1530 1531 1533 1535 1536 1538 1539 1540 1543 1544 1546 1547 1548 1550 1551 1552 1553 1554 1555 1555 1555 1556 1557 1556 1557 1557 1557 1556 1556 1556 1556 1556 1555
1514 1513 1513 1514 1516 1519 1520 1522 1523 1525 1528 1530 1532 1534 1535 1537 1537 1539 1540 1543 1544 1546 1547 1549 1550 1552 1553 1554 1554 1555 1556 1556 1556 1557 1557 1556 1556 1556 1556 1556 1556 1556 1555
1512 1512 1511 1512 1513 1514 1517 1519 1521 1522 1524 1527 1529 1531 1533 1536 1538 1538 1538 1541 1543 1545 1546 1548 1549 1550 1552 1553 1553 1554 1555 1556 1556 1556 1556 1556 1556 1556 1556 1556 1555 1555 1555
1507 1508 1508 1508 1509 1511 1512 1514 1518 1520 1521 1524 1527 1528 1531 1534 1535 1535 1536 1538 1540 1542 1544 1545 1547 1549 1550 1552 1553 1554 1554 1555 1555 1555 1555 1555 1555 1555 1555 1555 1555 1554 1554
1500 1502 1505 1505 1505 1506 1508 1509 1512 1515 1517 1518 1520 1524 1527 1529 1531 1533 1534 1535 1537 1539 1543 1543 1545 1547 1548 1550 1551 1552 1552 1553 1553 1554 1554 1554 1554 1554 1554 1554 1553 1553 1553
1494 1496 1499 1500 1501 1501 1502 1505 1507 1509 1511 1514 1516 1519 1522 1525 1527 1529 1530 1532 1534 1536 1540 1541 1542 1544 1546 1547 1548 1549 1550 1551 1552 1552 1552 1552 1553 1552 1552 1552 1552 1552 1551
1488 1488 1492 1493 1495 1496 1497 1498 1501 1504 1507 1509 1510 1513 1515 1520 1523 1525 1527 1529 1531 1533 1535 1538 1539 1542 1543 1544 1545 1547 1548 1548 1549 1549 1549 1550 1550 1551 1550 1550 1550 1550 1549
1482 1482 1483 1486 1489 1490 1491 1493 1495 1497 1500 1503 1505 1507 1510 1513 1517 1519 1522 1525 1526 1529 1531 1533 1535 1537 1539 1541 1542 1544 1545 1546 1546 1547 1547 1547 1547 1547 1548 1548 1548 1548 1548
1476 1475 1476 1478 1480 1483 1485 1487 1489 1492 1495 1497 1500 1502 1505 1508 1510 1514 1517 1520 1523 1524 1526 1529 1531 1534 1536 1538 1539 1540 1541 1542 1543 1544 1545 1545 1544 1544 1544 1545 1545 1545 1545
1468 1468 1469 1471 1472 1475 1479 1481 1483 1485 1488 1491 1494 1497 1500 1503 1505 1510 1513 1515 1518 1519 1522 1524 1527 1530 1531 1533 1533 1536 1538 1537 1538 1539 1540 1541 1541 1541 1541 1541 1541 1541 1541
1460 1461 1461 1463 1465 1468 1472 1473 1475 1477 1480 1484 1488 1492 1495 1497 1501 1504 1508 1511 1513 1515 1517 1519 1522 1524 1526 1528 1529 1530 1532 1532 1533 1533 1534 1535 1536 1536 1536 1537 1537 1536 1536
1451 1452 1453 1455 1458 1460 1463 1465 1467 1469 1473 1477 1481 1486 1490 1493 1494 1498 1503 1505 1507 1509 1512 1514 1517 1519 1520 1523 1524 1525 1524 1526 1527 1527 1528 1528 1529 1530 1531 1531 1532 1532 1531
1445 1445 1446 1448 1451 1453 1456 1459 1460 1464 1468 1471 1474 1478 1482 1487 1491 1492 1497 1499 1502 1503 1506 1508 1511 1513 1515 1516 1517 1520 1520 1520 1518 1518 1522 1521 1523 1525 1524 1526 1526 1526 1527
1439 1440 1441 1443 1444 1446 1449 1454 1455 1458 1462 1464 1467 1471 1476 1481 1484 1487 1490 1493 1495 1498 1499 1503 1506 1506 1508 1510 1510 1514 1515 1511 1513 1512 1515 1514 1516 1517 1517 1518 1519 1520 1521
1433 1434 1434 1436 1438 1440 1443 1447 1451 1452 1455 1458 1462 1467 1471 1474 1478 1481 1484 1487 1489 1491 1494 1496 1500 1500 1502 1502 1503 1503 1505 1507 1508 1506 1505 1506 1511 1511 1511 1512 1514 1515 1515
1428 1428 1428 1429 1431 1434 1437 1440 1445 1448 1452 1455 1460 1463 1466 1469 1473 1476 1479 1480 1483 1485 1486 1490 1491 1493 1494 1495 1496 1498 1497 1500 1501 1502 1498 1502 1508 1505 1505 1506 1507 1507 1507
1422 1422 1422 1423 1425 1427 1431 1435 1439 1443 1448 1452 1454 1458 1460 1463 1466 1470 1472 1474 1475 1477 1478 1479 1482 1483 1485 1486 1488 1490 1490 1491 1492 1493 1493 1496 1499 1501 1501 1501 1498 1503 1501